Location: Eaton
(41.3139°N, 82.0207°W)
Time: 02:16:45
(UTC+00:00)

ARIANE 5 R/B - Pass Details

Date: 17 June 2021
Orbit: 748 x 794 km, 98.7° (Epoch: 02 August)

Event Time Altitude Azimuth Distance (km) Brightness Sun altitude
Rises 08:01:42 0° 22° (NNE) 3,204 7.3 -16.3°
Reaches altitude 10° 08:04:10 10° 31° (NNE) 2,275 6.3 -16.0°
Maximum altitude 08:08:46 36° 98° (E) 1,177 3.7 -15.5°
Drops below altitude 10° 08:13:20 10° 164° (SSE) 2,268 4.6 -14.9°
Enters shadow 08:13:52 - 167° (SSE) 2,464 4.8 -14.9°
